Regional Weather Roundup
Issued by NWS Goodland, KS

Home | Current Version | Previous Version | Graphics & Text | Print | Product List | Glossary On
Versions: 1 2 3 4 5 6 7 8 9 10 11 12 13 14 15 16 17 18 19 20 21 22 23 24 25 26 27 28 29 30 31 32 33 34 35 36 37 38 39 40 41 42 43 44 45 46 47 48 49 50
000
ASUS43 KGLD 281659
RWRGLD

GOODLAND FORECAST AREA HOURLY WEATHER ROUNDUP
NATIONAL WEATHER SERVICE GOODLAND KS
1000 AM MST SAT FEB 28 2015

...OFFICIAL OBSERVATIONS...

CITY           SKY/WX    TMP DP  RH WIND       PRES   REMARKS
GOODLAND KS    LGT SNOW  15  10  80 S12       30.13R WCI   2
HILL CITY KS   LGT SNOW  16  10  77 S12       30.29F WCI   3
IMPERIAL NEB     N/A     18   7  62 S10       30.15S WCI   6
MCCOOK NEB     CLOUDY    22   9  57 S12       30.23F WCI  10
AKRON CO       PTSUNNY   14   8  77 SW6       30.01S
BURLINGTON CO  CLOUDY    14   8  77 S13       30.06S HAZE    WCI   0
LIMON CO       MOSUNNY    8   4  83 S3        29.97S
$$

...UNOFFICIAL OBSERVATIONS...

CITY           SKY/WX    TMP DP  RH WIND       PRES   REMARKS
COLBY KS       FLURRIES  18  14  86 SE10      30.19S WCI   6
GOVE KS          N/A     14  32 100 MISG        N/A
LENORA KS        N/A     15  32 100 CALM        N/A
NORTON KS      LGT SNOW  16   9  73 SE9       30.27S
SHARON SPRINGS   N/A     17  13  84 S12G18      N/A  WCI   4
KIT CARSON CO    N/A     14  10  83 MISG        N/A
YUMA CO          N/A     15   8  72 CALM        N/A
$$


USA.gov is the U.S. government's official web portal to all federal, state and local government web resources and services.